TELKOM 3S

Last updated on Tue Sep 22 2026 00:03:14 GMT+0000 (Coordinated Universal Time)

1 41944U 17007A 26264.58371110 -.00000366 00000+0 00000+0 0 9997 2 41944 0.0125 136.2994 0002332 42.6941 149.6223 1.00271642 35101
UTC large
Height (km)
Speed (km/s)
/
Latitude / Longitude
Inclination (degrees)
Orbital Period (minutes)
Azimuth
Elevation
Range (km)
Doppler Factor

Next 0 passes for location: London (51.5072 / 0.1276)

No passes found over London.
TELKOM 3S